Beidou DW 19

operational
NORAD ID: 40748 Int'l Des: 2015-037 Owner: CNSA Country: CN Constellation: BeiDou
MEOCIRCULAR

关于 Beidou DW 19

正在加载描述...

实时位置

正在加载3D地球...

即将过境

高度历史

Altitude vs Time

uPlot chart will show altitude changes over time

两行轨道根数

1 40748U 15037A 25345.92738932 -.00000089 00000-0 00000-0 0 9999
2 40748 55.0397 308.4912 0012345 267.8245 92.0250 1.86228970 70637
Epoch: Dec 11, 2025 • Age: 162 hours

当前状态

高度 21518.5 km
速度 3.78 km/s
星下点 -18.80°S, 171.75°E
发射日期 Jul 25, 2015
运行时间 10.4 years
类型 navigation

发射组

Unknown Vehicle • BeiDou Launch 20 • 2 satellites

技术详情

分类 Payload
质量 1014.00 kg
干质量 850.00 kg
总质量 1014.00 kg
长度 2.20 m
直径 1.70 m
跨度 10.00 m
形状 Box + 2 Pan
制造商 CAST
平台类型 BD-3M
阶段状态 In Orbit
所有者/国家 CNSA/CN

大型星座

Loading constellations...